Regional Weather Roundup
Issued by NWS Sioux Falls, SD

Home | Current Version | Previous Version | Text Only | Print | Product List | Glossary On
Versions: 1 2 3 4 5 6 7 8 9 10 11 12 13 14 15 16 17 18 19 20 21 22 23 24 25 26 27 28 29 30 31 32 33 34 35 36 37 38 39 40 41 42 43 44 45 46 47 48 49 50
427
ASUS43 KFSD 231510
RWRFSD

WEATHER ROUNDUP FOR SE SOUTH DAKOTA/SW MINNESOTA/NW IOWA
NATIONAL WEATHER SERVICE SIOUX FALLS SD
1000 AM CDT TUE MAY 23 2017

NOTE: "FAIR" INDICATES FEW OR NO CLOUDS BELOW 12,000 FEET WITH NO
SIGNIFICANT WEATHER AND OR OBSTRUCTIONS TO VISIBILITY.


SDZ038>040-050-052>070-231600-
SOUTHEAST SOUTH DAKOTA

CITY           SKY/WX    TMP DP  RH WIND       PRES   REMARKS
BROOKINGS      LGT RAIN  46  45  93 N14G22    29.90S
CHAMBERLAIN    CLOUDY    53  43  68 N16G22    29.99S
HURON          CLOUDY    50  45  83 N20G25    29.95S
MADISON        LGT RAIN  46  46 100 N15       29.91S
MITCHELL       CLOUDY    50  45  83 N20       29.96R
SIOUX FALLS    LGT RAIN  50  47  89 NW15      29.90S
WINNER         CLOUDY    51  41  68 N15       30.02S
YANKTON        CLOUDY    50  45  83 NW14G21   29.93S
$$

MNZ071-072-080-081-089-090-097-098-231600-
SOUTHWEST MINNESOTA

CITY           SKY/WX    TMP DP  RH WIND       PRES   REMARKS
FAIRMONT       CLOUDY    50  45  83 N14       29.85S
JACKSON        CLOUDY    48  43  81 N9        29.85F
LUVERNE        DRIZZLE   46  41  81 N8        29.89S
MARSHALL       LGT RAIN  48  45  87 N16       29.88S
MONTEVIDEO     RAIN      48  48 100 N9        29.88S
PIPESTONE      DRIZZLE   48  43  81 N10G16    29.88S
REDWOOD FALLS  CLOUDY    51  44  77 N9        29.86S
TRACY          LGT RAIN  49  46  92 N12       29.87S
WINDOM         CLOUDY    48  45  87 NW15      29.86S
WORTHINGTON    LGT RAIN  48  45  89 NW12      29.87S
$$

IAZ001>003-012>014-020>022-031-032-NEZ013-014-SDZ071-231600-
NORTHWEST IOWA

CITY           SKY/WX    TMP DP  RH WIND       PRES   REMARKS
CHEROKEE       CLOUDY    51  47  86 NW12      29.87S
DENISON        CLOUDY    52  46  82 NW14      29.89F
ESTHERVILLE    CLOUDY    48  47  96 N13       29.84F
LE MARS        CLOUDY    50  45  81 N9G18     29.90S
ORANGE CITY    CLOUDY    50  45  81 N12       29.88F
SHELDON        LGT RAIN  50  46  87 NW16        N/A
SIOUX CITY     CLOUDY    54  46  74 NW17      29.90S
SPENCER        CLOUDY    53  46  77 N15       29.86S
STORM LAKE       N/A     50  45  81 NW14      29.86S
$$

ABBREVIATIONS USED IN REMARKS
   TC - TEMPERATURE IN CELSIUS
  WCI - WIND CHILL INDEX
   HX - HEAT INDEX
  VSB - VISIBILITY





USA.gov is the U.S. government's official web portal to all federal, state and local government web resources and services.